Regional Weather Roundup
Issued by NWS

Home | Current Version | Previous Version | Text Only | Print | Product List | Glossary On
Versions: 1 2 3 4 5 6 7 8 9 10 11 12 13 14 15 16 17 18 19 20 21 22 23 24 25 26 27 28 29 30 31 32 33 34 35 36 37 38 39 40 41 42 43 44 45 46 47 48 49 50
000
ASUS43 KTOP 220708
RWRKS

WEATHER ROUNDUP FOR KANSAS
NATIONAL WEATHER SERVICE GOODLAND KS
200 AM CDT FRI JUN 22 2018

NOTE:  "FAIR" INDICATES FEW OR NO CLOUDS BELOW 12,000 FEET WITH NO
SIGNIFICANT WEATHER AND/OR OBSTRUCTIONS TO VISIBILITY.

KSZ001>006-013>018-027>032-041>047-220800-
NORTHWEST KANSAS

CITY           SKY/WX    TMP DP  RH WIND       PRES   REMARKS
GOODLAND       MOCLDY    61  53  75 CALM      30.05R
HAYS           CLOUDY    62  56  80 NW9       29.96F
HILL CITY      MOCLDY    60  57  89 CALM      29.98S
RUSSELL        CLEAR     60  58  92 W9        29.94S
$$

KSZ061>065-074>080-084>089-220800-
SOUTHWEST KANSAS

CITY           SKY/WX    TMP DP  RH WIND       PRES   REMARKS
DODGE CITY     CLEAR     63  53  70 NE7       29.97F
ELKHART        MOCLDY    70  67  90 E8        30.02R
GARDEN CITY    PTCLDY    66  52  60 E12       29.94F
GREAT BEND     CLEAR     61  58  90 NW6       29.94F
LIBERAL        MOCLDY    71  55  56 E14       29.97F
PRATT          CLEAR     63  54  73 CALM      29.93F
$$

KSZ066>073-081>083-090>101-220800-
SOUTHEAST KANSAS

CITY           SKY/WX    TMP DP  RH WIND       PRES   REMARKS
CHANUTE        CLOUDY    66  62  87 NW7       29.84S
COFFEYVILLE    CLEAR     68  61  78 NW7       29.83F
HUTCHINSON     CLEAR     64  60  87 NW8       29.90F
MEDICINE LODGE   N/A     63  58  83 N6        29.90F
NEWTON         CLEAR     61  59  93 N7        29.90F
PARSONS        CLEAR     65  62  90 NW7       29.84F
WICHITA INTL   CLEAR     66  59  78 NW8       29.88F
WICHITA JABRA  CLEAR     65  59  81 NW7       29.88F
WICHITA MCCONL CLEAR     69  58  68 W5        29.89S
WINFIELD       PTCLDY    62  58  86 CALM      29.89S
$$

KSZ007>012-019>026-033>040-048>060-102>105-220800-
NORTHEAST KANSAS

CITY           SKY/WX    TMP DP  RH WIND       PRES   REMARKS
CONCORDIA      CLOUDY    63  59  87 N9        29.90F
EMPORIA        CLOUDY    65  60  84 NW9       29.85F
LAWRENCE       CLOUDY    66  64  93 NW6       29.80F
MANHATTAN      CLOUDY    66  62  87 CALM      29.86F
MARYSVILLE     CLOUDY    63  63 100 NW6       29.87S
OLATHE IND     CLOUDY    65  64  97 W8        29.81S
OLATHE EXE     CLOUDY    65  64  97 NW8       29.80S
SALINA         CLOUDY    64  62  93 N9        29.90F
TOPEKA BILLARD CLOUDY    67  65  93 W5        29.82F
TOPEKA FORBES  CLOUDY    67  65  93 NW9       29.83S
$$




USA.gov is the U.S. government's official web portal to all federal, state and local government web resources and services.